Regional Weather Roundup
Issued by NWS

Home | Current Version | Previous Version | Graphics & Text | Print | Product List | Glossary On
Versions: 1 2 3 4 5 6 7 8 9 10 11 12 13 14 15 16 17 18 19 20 21 22 23 24 25 26 27 28 29 30 31 32 33 34 35 36 37 38 39 40 41 42 43 44 45 46 47 48 49 50
000
ASUS43 KMKX 080911
RWRWI

WISCONSIN REGIONAL WEATHER ROUNDUP
NATIONAL WEATHER SERVICE MILWAUKEE/SULLIVAN WI
300 AM CST THU DEC 08 2016

NOTE: "FAIR" INDICATES FEW OR NO CLOUDS BELOW 12,000 FEET WITH NO
SIGNIFICANT WEATHER AND/OR OBSTRUCTIONS TO VISIBILITY.

WIZ001-002-006>008-014>016-023>028-081000-
NORTHWEST WISCONSIN

CITY           SKY/WX    TMP DP  RH WIND       PRES   REMARKS
SUPERIOR ARPT  CLOUDY    24  20  84 NW7       30.05R WCI  16
ASHLAND        LGT SNOW  19  16  88 W10       29.99R FOG     WCI   7
HAYWARD        LGT SNOW  17  13  84 VRB5      30.01R FOG     WCI  10
SIREN          LGT SNOW  18  14  86 W8        30.08R WCI   7
CUMBERLAND     FLURRIES  16  12  86 W13G18    30.05S WCI   2
RICE LAKE      FLURRIES  16  12  84 W10       30.07S WCI   3
CHETEK         FLURRIES  15  11  82 W5        30.07R WCI   8
LADYSMITH      LGT SNOW  17  13  85 W10       30.03S WCI   4
EAU CLAIRE     CLOUDY    16  11  80 W12       30.10R WCI   3
MENOMONIE      PTCLDY    17  12  80 W14       30.11S WCI   3
NEW RICHMOND   FLURRIES  16  12  84 W10       30.13R WCI   4
OSCEOLA        FLURRIES  17  13  84 W9        30.16R WCI   6
$$

WIZ003>005-009-010-017-018-081000-
NORTH CENTRAL WISCONSIN

CITY           SKY/WX    TMP DP  RH WIND       PRES   REMARKS
MANITOWISH WTR FLURRIES  16  14  92 W13G18    29.89S WCI   2
ARBOR VITAE    FLURRIES  17  13  85 W10       29.91S WCI   4
WOODRUFF       FLURRIES  17  13  85 W10       29.91S WCI   4
RHINELANDER    LGT SNOW  14  10  84 W15       29.92S FOG     WCI  -1
EAGLE RIVER    FLURRIES  15  10  81 W12G18    29.88S WCI   1
LAND O LAKES   FLURRIES  16  13  86 W7        29.88S WCI   7
PHILLIPS       FLURRIES  14  12  89 W8        29.96R WCI   3
TOMAHAWK       LGT SNOW  14  10  83 W7G17     29.96S WCI   4
MEDFORD        FLURRIES  13   9  84 W13       29.99S WCI  -1
MERRILL        FLURRIES  15  10  81 W13       29.99S WCI   1
$$

WIZ029-030-035-036-043>047-081000-
CENTRAL WISCONSIN

CITY           SKY/WX    TMP DP  RH WIND       PRES   REMARKS
WAUSAU         FLURRIES  14   9  80 W15       30.00R WCI  -1
MOSINEE        FLURRIES  14  12  92 W14       30.02S WCI  -1
MARSHFIELD     LGT SNOW  14   8  77 W14G24    30.03R WCI  -1
STEVENS POINT  FLURRIES  14   8  78 W13G20    30.04S WCI   0
WAUPACA        FLURRIES  20  12  71 W15       30.05S WCI   7
WAUTOMA        FLURRIES  18  13  80 W13       30.08R WCI   5
WISC RAPIDS    PTCLDY    15  10  80 W12       30.07R WCI   2
CAMP DOUGLAS   FLURRIES  16   9  76 W15       30.10S WCI   1
$$

WIZ011>013-019>022-031-037>040-048>050-081000-
NORTHEAST WISCONSIN

CITY           SKY/WX    TMP DP  RH WIND       PRES   REMARKS
ANTIGO         LGT SNOW  13   9  85 W15       29.95S WCI  -3
SHAWANO        MOCLDY    20  11  67 W14       30.01F WCI   7
OCONTO         CLOUDY    20  10  64 W17G23    29.99F WCI   5
STURGEON BAY   FLURRIES  21  12  68 W16G25    29.97S WCI   7
GREEN BAY      FLURRIES  22  13  68 W17       30.01S WCI   8
MANITOWOC      FLURRIES  22  14  71 W18G24    30.02S WCI   7
APPLETON       CLOUDY    19   9  63 W23       30.02R WCI   2
CLINTONVILLE   FLURRIES  19  10  68 W14       30.02F WCI   6
OSHKOSH        CLOUDY    20  11  68 W10G23    30.04S WCI   9
$$

WIZ032>034-041-042-053>061-081000-
SOUTHWEST WISCONSIN

CITY           SKY/WX    TMP DP  RH WIND       PRES   REMARKS
LA CROSSE      CLOUDY    18   9  68 W17       30.17S WCI   3
SPARTA         FLURRIES  16  11  80 W8        30.14S WCI   5
VIROQUA        CLOUDY    13   8  79 W10G17    30.12S WCI   0
BOSCOBEL       CLOUDY    16   6  65 W13G23    30.21R WCI   2
PRAIRIE DU CHI CLOUDY    15   6  67 W12G17    30.24R WCI   1
PLATTEVILLE    MOCLDY    15  10  80 W16G24    30.19R WCI  -1
$$

WIZ056-057-062-063-064-067-068-081000-
SOUTH CENTRAL WISCONSIN

CITY           SKY/WX    TMP DP  RH WIND       PRES   REMARKS
REEDSBURG      FLURRIES  17  10  75 W14       30.12R WCI   3
BARABOO/DELLS  FLURRIES  17  10  73 W15       30.10R WCI   3
LONE ROCK      CLOUDY    17   7  64 W16G25    30.17R WCI   2
MINERAL POINT  FLURRIES  16  10  79 W21       30.14S WCI  -2
MADISON        CLOUDY    18   8  65 MISG      30.11S
MIDDLETON      CLOUDY    19  11  71 W16G25    30.12S WCI   4
WATERTOWN      CLOUDY    20  13  74 W12       30.09S WCI   8
MONROE         FLURRIES  18  10  73 W22G30    30.14R WCI   0
JANESVILLE     CLOUDY    21  12  68 W15G25    30.13S WCI   8
$$

WIZ051-052-058>065-066-070>072-081000-
SOUTHEAST WISCONSIN

CITY           SKY/WX    TMP DP  RH WIND       PRES   REMARKS
MILWAUKEE      FLURRIES  23  13  65 W13       30.09S WCI  11
WAUKESHA       CLOUDY    19  10  68 W22       30.09S WCI   3
MILWAUKEE/TIMM CLOUDY    21  10  63 W17G24    30.09S WCI   7
RACINE         CLOUDY    22  11  62 W13G22    30.12R WCI  10
BURLINGTON     FLURRIES  20  12  70 W16G28    30.11S WCI   6
KENOSHA        CLOUDY    22  13  68 W18G26    30.11R WCI   7
FOND DU LAC    FLURRIES  20  10  65 W12G21    30.06R WCI   8
SHEBOYGAN      CLOUDY    21  12  68 W16       30.04S WCI   7
WEST BEND      CLOUDY    21  14  73 W13       30.05S WCI   9
JUNEAU         CLOUDY    19  11  72 W17       30.09S WCI   3
$$

LSZ147-162-081000-
LAKE SUPERIOR

STATION/POSITION TIME  TEMP    WIND        PRES    WAVE
                       AIR SEA DIR/SP/G            HT/PER
                 (UTC) (F)     (DEG/KT/KT) (MB)    (FT/S)
DEVILS ISLAND    0900   28     330/ 24/ 30 1015.9R
PORT WING        0840   28     330/ 19/ 23 1016.3R
SAXON HARBOR     0840   21     210/ 10/ 15 1014.2S
$$

LMZ867-665-643>646-081000-
LAKE MICHIGAN

STATION/POSITION TIME  TEMP    WIND        PRES    WAVE
                       AIR SEA DIR/SP/G            HT/PER
                 (UTC) (F)     (DEG/KT/KT) (MB)    (FT/S)
CHAMBERS ISLAND  0830   22     230/ 12/ 20 1013.5S
NORTHPORT PIER   0900   23     270/  9/ 18 1013.5
SISTER BAY       0836   24     320/ 23/ 32   N/A
ALGOMA LAKESHORE 0821          320/ 10/ 13   N/A
KEWAUNEE LAKESHO 0848   22     340/ 16/ 23 1015.2S
SHEBOYGAN LAKESH 0900   22     260/ 18/ 22 1018.0F
PORT WASHINGTON  0830   22     280/  8/ 18 1019.3S
MILWAUKEE LAKESH 0850   23     280/  9/ 10   N/A
KENOSHA   LAKESH 0900   23     280/ 14/ 23 1019.6
$$

TC  - TEMPERATURE IN CELSIUS
VSB - VISIBILITY IN STATUTE MILES
WCI - WIND CHILL INDEX
HX  - HEAT INDEX




USA.gov is the U.S. government's official web portal to all federal, state and local government web resources and services.